Time,TemperatureF,DewpointF,PressureIn,WindDirection,WindDirectionDegrees,WindSpeedMPH,WindSpeedGustMPH,Humidity,HourlyPrecipIn,Conditions,Clouds,dailyrainin,SoftwareType,DateUTC
2013-07-25 00:03:00,63.7,29.1,-100.00,North,-999,0.0,0.0,27,0.00,,,-99.99,FreeWX-Wi 1.01,2013-07-25 04:03:00,
2013-07-25 00:13:00,63.3,28.8,-100.00,North,-999,0.0,0.0,27,0.00,,,-99.99,FreeWX-Wi 1.01,2013-07-25 04:13:00,
2013-07-25 00:23:00,62.8,28.2,-100.00,North,-999,0.0,0.0,27,0.00,,,-99.99,FreeWX-Wi 1.01,2013-07-25 04:23:00,
2013-07-25 00:32:00,62.4,28.9,-100.00,North,-999,0.0,0.0,28,0.00,,,-99.99,FreeWX-Wi 1.01,2013-07-25 04:32:00,
2013-07-25 00:43:00,62.2,28.8,-100.00,North,-999,0.0,0.0,28,0.00,,,-99.99,FreeWX-Wi 1.01,2013-07-25 04:43:00,
2013-07-25 00:53:00,61.9,28.4,-100.00,North,-999,0.0,0.0,28,0.00,,,-99.99,FreeWX-Wi 1.01,2013-07-25 04:53:00,
2013-07-25 01:03:00,61.3,28.0,-100.00,North,-999,0.0,0.0,28,0.00,,,-99.99,FreeWX-Wi 1.01,2013-07-25 05:03:00,
2013-07-25 01:12:00,61.0,27.7,-100.00,North,-999,0.0,0.0,28,0.00,,,-99.99,FreeWX-Wi 1.01,2013-07-25 05:12:00,
2013-07-25 01:22:00,60.8,27.5,-100.00,North,-999,0.0,0.0,28,0.00,,,-99.99,FreeWX-Wi 1.01,2013-07-25 05:22:00,
2013-07-25 01:33:00,60.4,27.1,-100.00,North,-999,0.0,0.0,28,0.00,,,-99.99,FreeWX-Wi 1.01,2013-07-25 05:33:00,
2013-07-25 01:43:00,60.1,27.0,-100.00,North,-999,0.0,0.0,28,0.00,,,-99.99,FreeWX-Wi 1.01,2013-07-25 05:43:00,
2013-07-25 01:52:00,59.9,26.8,-100.00,North,-999,0.0,0.0,28,0.00,,,-99.99,FreeWX-Wi 1.01,2013-07-25 05:52:00,
2013-07-25 02:02:00,59.7,26.6,-100.00,North,-999,0.0,0.0,28,0.00,,,-99.99,FreeWX-Wi 1.01,2013-07-25 06:02:00,
2013-07-25 02:13:00,59.7,26.6,-100.00,North,-999,0.0,0.0,28,0.00,,,-99.99,FreeWX-Wi 1.01,2013-07-25 06:13:00,
2013-07-25 02:22:00,59.5,26.4,-100.00,North,-999,0.0,0.0,28,0.00,,,-99.99,FreeWX-Wi 1.01,2013-07-25 06:22:00,
2013-07-25 02:33:00,59.4,26.2,-100.00,North,-999,0.0,0.0,28,0.00,,,-99.99,FreeWX-Wi 1.01,2013-07-25 06:33:00,
2013-07-25 02:43:00,59.4,26.2,-100.00,North,-999,0.0,0.0,28,0.00,,,-99.99,FreeWX-Wi 1.01,2013-07-25 06:43:00,
2013-07-25 02:52:00,59.2,26.1,-100.00,North,-999,0.0,0.0,28,0.00,,,-99.99,FreeWX-Wi 1.01,2013-07-25 06:52:00,
2013-07-25 03:03:00,59.2,26.1,-100.00,North,-999,0.0,0.0,28,0.00,,,-99.99,FreeWX-Wi 1.01,2013-07-25 07:03:00,
2013-07-25 03:13:00,59.0,25.9,-100.00,North,-999,0.0,0.0,28,0.00,,,-99.99,FreeWX-Wi 1.01,2013-07-25 07:13:00,
2013-07-25 03:23:00,58.5,26.2,-100.00,North,-999,0.0,0.0,29,0.00,,,-99.99,FreeWX-Wi 1.01,2013-07-25 07:23:00,
2013-07-25 03:33:00,58.3,26.2,-100.00,North,-999,0.0,0.0,29,0.00,,,-99.99,FreeWX-Wi 1.01,2013-07-25 07:33:00,
2013-07-25 03:43:00,58.1,26.1,-100.00,North,-999,0.0,0.0,29,0.00,,,-99.99,FreeWX-Wi 1.01,2013-07-25 07:43:00,
2013-07-25 03:52:00,58.1,26.1,-100.00,North,-999,0.0,0.0,29,0.00,,,-99.99,FreeWX-Wi 1.01,2013-07-25 07:52:00,
2013-07-25 04:03:00,57.9,25.9,-100.00,North,-999,0.0,0.0,29,0.00,,,-99.99,FreeWX-Wi 1.01,2013-07-25 08:03:00,
2013-07-25 04:13:00,57.9,25.9,-100.00,North,-999,0.0,0.0,29,0.00,,,-99.99,FreeWX-Wi 1.01,2013-07-25 08:13:00,
2013-07-25 04:22:00,57.9,25.9,-100.00,North,-999,0.0,0.0,29,0.00,,,-99.99,FreeWX-Wi 1.01,2013-07-25 08:22:00,
2013-07-25 04:32:00,57.7,25.7,-100.00,North,-999,0.0,0.0,29,0.00,,,-99.99,FreeWX-Wi 1.01,2013-07-25 08:32:00,
2013-07-25 04:43:00,57.6,25.5,-100.00,North,-999,0.0,0.0,29,0.00,,,-99.99,FreeWX-Wi 1.01,2013-07-25 08:43:00,
2013-07-25 04:53:00,57.4,25.3,-100.00,North,-999,0.0,0.0,29,0.00,,,-99.99,FreeWX-Wi 1.01,2013-07-25 08:53:00,
2013-07-25 05:03:00,57.4,25.3,-100.00,North,-999,0.0,0.0,29,0.00,,,-99.99,FreeWX-Wi 1.01,2013-07-25 09:03:00,
2013-07-25 05:12:00,57.2,25.2,-100.00,North,-999,0.0,0.0,29,0.00,,,-99.99,FreeWX-Wi 1.01,2013-07-25 09:12:00,
2013-07-25 05:23:00,57.2,25.2,-100.00,North,-999,0.0,0.0,29,0.00,,,-99.99,FreeWX-Wi 1.01,2013-07-25 09:23:00,
2013-07-25 05:32:00,57.0,25.2,-100.00,North,-999,0.0,0.0,29,0.00,,,-99.99,FreeWX-Wi 1.01,2013-07-25 09:32:00,
2013-07-25 05:43:00,57.0,25.2,-100.00,North,-999,0.0,0.0,29,0.00,,,-99.99,FreeWX-Wi 1.01,2013-07-25 09:43:00,
2013-07-25 06:03:00,56.8,27.3,-100.00,North,-999,0.0,0.0,32,0.00,,,-99.99,FreeWX-Wi 1.01,2013-07-25 10:03:00,
2013-07-25 06:13:00,56.8,27.3,-100.00,North,-999,0.0,0.0,32,0.00,,,-99.99,FreeWX-Wi 1.01,2013-07-25 10:13:00,
2013-07-25 06:23:00,56.8,27.3,-100.00,North,-999,0.0,0.0,32,0.00,,,-99.99,FreeWX-Wi 1.01,2013-07-25 10:23:00,
2013-07-25 06:32:00,56.8,27.3,-100.00,North,-999,0.0,0.0,32,0.00,,,-99.99,FreeWX-Wi 1.01,2013-07-25 10:32:00,
2013-07-25 06:42:00,56.8,28.8,-100.00,North,-999,0.0,0.0,34,0.00,,,-99.99,FreeWX-Wi 1.01,2013-07-25 10:42:00,
2013-07-25 06:53:00,56.8,28.8,-100.00,North,-999,0.0,0.0,34,0.00,,,-99.99,FreeWX-Wi 1.01,2013-07-25 10:53:00,
2013-07-25 07:03:00,56.8,28.8,-100.00,North,-999,0.0,0.0,34,0.00,,,-99.99,FreeWX-Wi 1.01,2013-07-25 11:03:00,
2013-07-25 07:12:00,56.7,28.6,-100.00,North,-999,0.0,0.0,34,0.00,,,-99.99,FreeWX-Wi 1.01,2013-07-25 11:12:00,
2013-07-25 07:22:00,56.8,30.9,-100.00,North,-999,0.0,0.0,37,0.00,,,-99.99,FreeWX-Wi 1.01,2013-07-25 11:22:00,
2013-07-25 07:33:00,57.0,30.9,-100.00,North,-999,0.0,0.0,37,0.00,,,-99.99,FreeWX-Wi 1.01,2013-07-25 11:33:00,
2013-07-25 07:43:00,57.0,30.9,-100.00,North,-999,0.0,0.0,37,0.00,,,-99.99,FreeWX-Wi 1.01,2013-07-25 11:43:00,
2013-07-25 07:52:00,57.0,32.4,-100.00,North,-999,0.0,0.0,39,0.00,,,-99.99,FreeWX-Wi 1.01,2013-07-25 11:52:00,
2013-07-25 08:02:00,57.0,32.4,-100.00,North,-999,0.0,0.0,39,0.00,,,-99.99,FreeWX-Wi 1.01,2013-07-25 12:02:00,
2013-07-25 08:13:00,57.0,32.4,-100.00,North,-999,0.0,0.0,39,0.00,,,-99.99,FreeWX-Wi 1.01,2013-07-25 12:13:00,
2013-07-25 08:22:00,57.4,32.7,-100.00,North,-999,0.0,0.0,39,0.00,,,-99.99,FreeWX-Wi 1.01,2013-07-25 12:22:00,
2013-07-25 08:32:00,57.6,32.7,-100.00,North,-999,0.0,0.0,39,0.00,,,-99.99,FreeWX-Wi 1.01,2013-07-25 12:32:00,
2013-07-25 08:43:00,57.7,32.9,-100.00,North,-999,0.0,0.0,39,0.00,,,-99.99,FreeWX-Wi 1.01,2013-07-25 12:43:00,
2013-07-25 08:52:00,57.6,32.7,-100.00,North,-999,0.0,0.0,39,0.00,,,-99.99,FreeWX-Wi 1.01,2013-07-25 12:52:00,
2013-07-25 09:03:00,57.6,32.7,-100.00,North,-999,0.0,0.0,39,0.00,,,-99.99,FreeWX-Wi 1.01,2013-07-25 13:03:00,
2013-07-25 09:13:00,57.7,32.9,-100.00,North,-999,0.0,0.0,39,0.00,,,-99.99,FreeWX-Wi 1.01,2013-07-25 13:13:00,
2013-07-25 09:22:00,57.7,32.9,-100.00,North,-999,0.0,0.0,39,0.00,,,-99.99,FreeWX-Wi 1.01,2013-07-25 13:22:00,
2013-07-25 09:32:00,58.1,33.3,-100.00,North,-999,0.0,0.0,39,0.00,,,-99.99,FreeWX-Wi 1.01,2013-07-25 13:32:00,
2013-07-25 09:43:00,58.1,34.0,-100.00,North,-999,0.0,0.0,40,0.00,,,-99.99,FreeWX-Wi 1.01,2013-07-25 13:43:00,
2013-07-25 10:03:00,58.3,34.0,-100.00,North,-999,0.0,0.0,40,0.00,,,-99.99,FreeWX-Wi 1.01,2013-07-25 14:03:00,
2013-07-25 10:12:00,58.5,34.2,-100.00,North,-999,0.0,0.0,40,0.00,,,-99.99,FreeWX-Wi 1.01,2013-07-25 14:12:00,
2013-07-25 10:22:00,58.6,34.3,-100.00,North,-999,0.0,0.0,40,0.00,,,-99.99,FreeWX-Wi 1.01,2013-07-25 14:22:00,
2013-07-25 10:32:00,58.6,34.3,-100.00,North,-999,0.0,0.0,40,0.00,,,-99.99,FreeWX-Wi 1.01,2013-07-25 14:32:00,
2013-07-25 10:43:00,58.6,34.3,-100.00,North,-999,0.0,0.0,40,0.00,,,-99.99,FreeWX-Wi 1.01,2013-07-25 14:43:00,
2013-07-25 10:52:00,58.6,34.3,-100.00,North,-999,0.0,0.0,40,0.00,,,-99.99,FreeWX-Wi 1.01,2013-07-25 14:52:00,
2013-07-25 11:03:00,58.8,35.2,-100.00,North,-999,0.0,0.0,41,0.00,,,-99.99,FreeWX-Wi 1.01,2013-07-25 15:03:00,
2013-07-25 11:12:00,58.8,34.5,-100.00,North,-999,0.0,0.0,40,0.00,,,-99.99,FreeWX-Wi 1.01,2013-07-25 15:12:00,
2013-07-25 11:23:00,58.8,34.5,-100.00,North,-999,0.0,0.0,40,0.00,,,-99.99,FreeWX-Wi 1.01,2013-07-25 15:23:00,
2013-07-25 11:32:00,58.8,35.2,-100.00,North,-999,0.0,0.0,41,0.00,,,-99.99,FreeWX-Wi 1.01,2013-07-25 15:32:00,
2013-07-25 11:42:00,58.6,36.1,-100.00,North,-999,0.0,0.0,43,0.00,,,-99.99,FreeWX-Wi 1.01,2013-07-25 15:42:00,
2013-07-25 11:53:00,58.3,36.5,-100.00,North,-999,0.0,0.0,44,0.00,,,-99.99,FreeWX-Wi 1.01,2013-07-25 15:53:00,
2013-07-25 12:02:00,58.1,36.9,-100.00,North,-999,0.0,0.0,45,0.00,,,-99.99,FreeWX-Wi 1.01,2013-07-25 16:02:00,
2013-07-25 12:13:00,58.1,37.9,-100.00,North,-999,0.0,0.0,47,0.00,,,-99.99,FreeWX-Wi 1.01,2013-07-25 16:13:00,
2013-07-25 12:23:00,58.1,38.5,-100.00,North,-999,0.0,0.0,48,0.00,,,-99.99,FreeWX-Wi 1.01,2013-07-25 16:23:00,
2013-07-25 12:33:00,57.7,38.7,-100.00,North,-999,0.0,0.0,49,0.00,,,-99.99,FreeWX-Wi 1.01,2013-07-25 16:33:00,
2013-07-25 12:42:00,57.7,38.7,-100.00,North,-999,0.0,0.0,49,0.00,,,-99.99,FreeWX-Wi 1.01,2013-07-25 16:42:00,
2013-07-25 12:53:00,57.7,38.7,-100.00,North,-999,0.0,0.0,49,0.00,,,-99.99,FreeWX-Wi 1.01,2013-07-25 16:53:00,
2013-07-25 13:02:00,57.7,38.7,-100.00,North,-999,0.0,0.0,49,0.00,,,-99.99,FreeWX-Wi 1.01,2013-07-25 17:02:00,
2013-07-25 13:13:00,58.1,39.0,-100.00,North,-999,0.0,0.0,49,0.00,,,-99.99,FreeWX-Wi 1.01,2013-07-25 17:13:00,
2013-07-25 13:22:00,58.3,39.2,-100.00,North,-999,0.0,0.0,49,0.00,,,-99.99,FreeWX-Wi 1.01,2013-07-25 17:22:00,
2013-07-25 13:33:00,58.5,38.3,-100.00,North,-999,0.0,0.0,47,0.00,,,-99.99,FreeWX-Wi 1.01,2013-07-25 17:33:00,
2013-07-25 13:43:00,58.5,37.8,-100.00,North,-999,0.0,0.0,46,0.00,,,-99.99,FreeWX-Wi 1.01,2013-07-25 17:43:00,
2013-07-25 13:53:00,58.5,37.8,-100.00,North,-999,0.0,0.0,46,0.00,,,-99.99,FreeWX-Wi 1.01,2013-07-25 17:53:00,
2013-07-25 14:02:00,58.6,37.9,-100.00,North,-999,0.0,0.0,46,0.00,,,-99.99,FreeWX-Wi 1.01,2013-07-25 18:02:00,
2013-07-25 14:13:00,58.6,37.9,-100.00,North,-999,0.0,0.0,46,0.00,,,-99.99,FreeWX-Wi 1.01,2013-07-25 18:13:00,
2013-07-25 14:23:00,58.6,37.9,-100.00,North,-999,0.0,0.0,46,0.00,,,-99.99,FreeWX-Wi 1.01,2013-07-25 18:23:00,
2013-07-25 14:33:00,58.8,38.1,-100.00,North,-999,0.0,0.0,46,0.00,,,-99.99,FreeWX-Wi 1.01,2013-07-25 18:33:00,
2013-07-25 14:43:00,58.8,37.6,-100.00,North,-999,0.0,0.0,45,0.00,,,-99.99,FreeWX-Wi 1.01,2013-07-25 18:43:00,
2013-07-25 14:53:00,58.6,37.4,-100.00,North,-999,0.0,0.0,45,0.00,,,-99.99,FreeWX-Wi 1.01,2013-07-25 18:53:00,
2013-07-25 15:03:00,58.8,38.1,-100.00,North,-999,0.0,0.0,46,0.00,,,-99.99,FreeWX-Wi 1.01,2013-07-25 19:03:00,
2013-07-25 15:13:00,59.2,38.5,-100.00,North,-999,0.0,0.0,46,0.00,,,-99.99,FreeWX-Wi 1.01,2013-07-25 19:13:00,
2013-07-25 15:23:00,59.0,38.3,-100.00,North,-999,0.0,0.0,46,0.00,,,-99.99,FreeWX-Wi 1.01,2013-07-25 19:23:00,
2013-07-25 15:32:00,59.0,38.8,-100.00,North,-999,0.0,0.0,47,0.00,,,-99.99,FreeWX-Wi 1.01,2013-07-25 19:32:00,
2013-07-25 15:43:00,58.8,39.2,-100.00,North,-999,0.0,0.0,48,0.00,,,-99.99,FreeWX-Wi 1.01,2013-07-25 19:43:00,
2013-07-25 15:52:00,58.8,39.2,-100.00,North,-999,0.0,0.0,48,0.00,,,-99.99,FreeWX-Wi 1.01,2013-07-25 19:52:00,
2013-07-25 16:02:00,58.8,39.7,-100.00,North,-999,0.0,0.0,49,0.00,,,-99.99,FreeWX-Wi 1.01,2013-07-25 20:02:00,
2013-07-25 16:13:00,58.6,39.6,-100.00,North,-999,0.0,0.0,49,0.00,,,-99.99,FreeWX-Wi 1.01,2013-07-25 20:13:00,
2013-07-25 16:23:00,58.3,39.7,-100.00,North,-999,0.0,0.0,50,0.00,,,-99.99,FreeWX-Wi 1.01,2013-07-25 20:23:00,
2013-07-25 16:33:00,57.6,39.6,-100.00,North,-999,0.0,0.0,51,0.00,,,-99.99,FreeWX-Wi 1.01,2013-07-25 20:33:00,
2013-07-25 16:43:00,57.2,40.3,-100.00,North,-999,0.0,0.0,53,0.00,,,-99.99,FreeWX-Wi 1.01,2013-07-25 20:43:00,
2013-07-25 16:53:00,57.0,40.5,-100.00,North,-999,0.0,0.0,54,0.00,,,-99.99,FreeWX-Wi 1.01,2013-07-25 20:53:00,
2013-07-25 17:03:00,56.7,41.2,-100.00,North,-999,0.0,0.0,56,0.00,,,-99.99,FreeWX-Wi 1.01,2013-07-25 21:03:00,
2013-07-25 17:13:00,56.3,41.7,-100.00,North,-999,0.0,0.0,58,0.00,,,-99.99,FreeWX-Wi 1.01,2013-07-25 21:13:00,
2013-07-25 17:22:00,56.5,42.3,-100.00,North,-999,0.0,0.0,59,0.00,,,-99.99,FreeWX-Wi 1.01,2013-07-25 21:22:00,
2013-07-25 17:33:00,56.5,42.8,-100.00,North,-999,0.0,0.0,60,0.00,,,-99.99,FreeWX-Wi 1.01,2013-07-25 21:33:00,
2013-07-25 17:43:00,56.1,42.4,-100.00,North,-999,0.0,0.0,60,0.00,,,-99.99,FreeWX-Wi 1.01,2013-07-25 21:43:00,
2013-07-25 17:54:00,56.3,43.0,-100.00,North,-999,0.0,0.0,61,0.00,,,-99.99,FreeWX-Wi 1.01,2013-07-25 21:54:00,
2013-07-25 18:04:00,56.1,43.3,-100.00,North,-999,0.0,0.0,62,0.00,,,-99.99,FreeWX-Wi 1.01,2013-07-25 22:04:00,
2013-07-25 18:14:00,56.1,43.3,-100.00,North,-999,0.0,0.0,62,0.00,,,-99.99,FreeWX-Wi 1.01,2013-07-25 22:14:00,
2013-07-25 18:24:00,55.9,43.5,-100.00,North,-999,0.0,0.0,63,0.00,,,-99.99,FreeWX-Wi 1.01,2013-07-25 22:24:00,
2013-07-25 18:34:00,55.8,43.3,-100.00,North,-999,0.0,0.0,63,0.00,,,-99.99,FreeWX-Wi 1.01,2013-07-25 22:34:00,
2013-07-25 18:44:00,55.6,43.5,-100.00,North,-999,0.0,0.0,64,0.00,,,-99.99,FreeWX-Wi 1.01,2013-07-25 22:44:00,
2013-07-25 18:54:00,55.6,44.1,-100.00,North,-999,0.0,0.0,65,0.00,,,-99.99,FreeWX-Wi 1.01,2013-07-25 22:54:00,
2013-07-25 19:03:00,55.6,44.1,-100.00,North,-999,0.0,0.0,65,0.00,,,-99.99,FreeWX-Wi 1.01,2013-07-25 23:03:00,
2013-07-25 19:14:00,55.6,44.4,-100.00,North,-999,0.0,0.0,66,0.00,,,-99.99,FreeWX-Wi 1.01,2013-07-25 23:14:00,
2013-07-25 19:23:00,55.6,44.4,-100.00,North,-999,0.0,0.0,66,0.00,,,-99.99,FreeWX-Wi 1.01,2013-07-25 23:23:00,
2013-07-25 19:34:00,55.6,44.8,-100.00,North,-999,0.0,0.0,67,0.00,,,-99.99,FreeWX-Wi 1.01,2013-07-25 23:34:00,
2013-07-25 19:44:00,55.6,44.8,-100.00,North,-999,0.0,0.0,67,0.00,,,-99.99,FreeWX-Wi 1.01,2013-07-25 23:44:00,
2013-07-25 19:54:00,55.6,44.8,-100.00,North,-999,0.0,0.0,67,0.00,,,-99.99,FreeWX-Wi 1.01,2013-07-25 23:54:00,
2013-07-25 20:04:00,55.4,44.6,-100.00,North,-999,0.0,0.0,67,0.00,,,-99.99,FreeWX-Wi 1.01,2013-07-26 00:04:00,
2013-07-25 20:14:00,55.4,45.0,-100.00,North,-999,0.0,0.0,68,0.00,,,-99.99,FreeWX-Wi 1.01,2013-07-26 00:14:00,
2013-07-25 20:24:00,55.6,45.1,-100.00,North,-999,0.0,0.0,68,0.00,,,-99.99,FreeWX-Wi 1.01,2013-07-26 00:24:00,
2013-07-25 20:34:00,55.8,45.7,-100.00,North,-999,0.0,0.0,69,0.00,,,-99.99,FreeWX-Wi 1.01,2013-07-26 00:34:00,
2013-07-25 20:44:00,55.8,45.7,-100.00,North,-999,0.0,0.0,69,0.00,,,-99.99,FreeWX-Wi 1.01,2013-07-26 00:44:00,
2013-07-25 20:53:00,55.8,45.7,-100.00,North,-999,0.0,0.0,69,0.00,,,-99.99,FreeWX-Wi 1.01,2013-07-26 00:53:00,
2013-07-25 21:03:00,55.9,46.2,-100.00,North,-999,0.0,0.0,70,0.00,,,-99.99,FreeWX-Wi 1.01,2013-07-26 01:03:00,
2013-07-25 21:14:00,55.9,46.2,-100.00,North,-999,0.0,0.0,70,0.00,,,-99.99,FreeWX-Wi 1.01,2013-07-26 01:14:00,
2013-07-25 21:23:00,55.9,46.8,-100.00,North,-999,0.0,0.0,71,0.00,,,-99.99,FreeWX-Wi 1.01,2013-07-26 01:23:00,
2013-07-25 21:33:00,55.9,46.8,-100.00,North,-999,0.0,0.0,71,0.00,,,-99.99,FreeWX-Wi 1.01,2013-07-26 01:33:00,
2013-07-25 21:46:00,55.8,46.9,-100.00,North,-999,0.0,0.0,72,0.00,,,-99.99,FreeWX-Wi 1.01,2013-07-26 01:46:00,
2013-07-25 21:56:00,55.9,47.5,-100.00,North,-999,0.0,0.0,73,0.00,,,-99.99,FreeWX-Wi 1.01,2013-07-26 01:56:00,
2013-07-25 22:06:00,55.9,47.5,-100.00,North,-999,0.0,0.0,73,0.00,,,-99.99,FreeWX-Wi 1.01,2013-07-26 02:06:00,
2013-07-25 22:15:00,55.9,47.8,-100.00,North,-999,0.0,0.0,74,0.00,,,-99.99,FreeWX-Wi 1.01,2013-07-26 02:15:00,
2013-07-25 22:26:00,55.9,47.8,-100.00,North,-999,0.0,0.0,74,0.00,,,-99.99,FreeWX-Wi 1.01,2013-07-26 02:26:00,
2013-07-25 22:36:00,55.9,48.2,-100.00,North,-999,0.0,0.0,75,0.00,,,-99.99,FreeWX-Wi 1.01,2013-07-26 02:36:00,
2013-07-25 22:47:00,55.9,48.6,-100.00,North,-999,0.0,0.0,76,0.00,,,-99.99,FreeWX-Wi 1.01,2013-07-26 02:47:00,
2013-07-25 22:57:00,55.8,48.4,-100.00,North,-999,0.0,0.0,76,0.00,,,-99.99,FreeWX-Wi 1.01,2013-07-26 02:57:00,
2013-07-25 23:07:00,55.8,48.7,-100.00,North,-999,0.0,0.0,77,0.00,,,-99.99,FreeWX-Wi 1.01,2013-07-26 03:07:00,
2013-07-25 23:16:00,55.8,48.9,-100.00,North,-999,0.0,0.0,78,0.00,,,-99.99,FreeWX-Wi 1.01,2013-07-26 03:16:00,
2013-07-25 23:27:00,55.8,48.9,-100.00,North,-999,0.0,0.0,78,0.00,,,-99.99,FreeWX-Wi 1.01,2013-07-26 03:27:00,
2013-07-25 23:37:00,55.8,49.3,-100.00,North,-999,0.0,0.0,79,0.00,,,-99.99,FreeWX-Wi 1.01,2013-07-26 03:37:00,
2013-07-25 23:47:00,55.8,49.3,-100.00,North,-999,0.0,0.0,79,0.00,,,-99.99,FreeWX-Wi 1.01,2013-07-26 03:47:00,
2013-07-25 23:59:00,55.8,49.6,-100.00,North,-999,0.0,0.0,80,0.00,,,-99.99,FreeWX-Wi 1.01,2013-07-26 03:59:00,